STARLINK-37995

Last updated on Sun Aug 09 2026 00:02:04 GMT+0000 (Coordinated Universal Time)

1 69977U 26159C 26220.50205697 .00106967 00000+0 70775-3 0 9994 2 69977 97.2828 60.4311 0002572 91.6159 268.5401 15.75231023 5693
UTC large
Height (km)
Speed (km/s)
/
Latitude / Longitude
Inclination (degrees)
Orbital Period (minutes)
Azimuth
Elevation
Range (km)
Doppler Factor

Next 0 passes for location: London (51.5072 / 0.1276)

No passes found over London.
STARLINK-37995